[[{"header":{"parameterUnit":"m.s-1","parameterCategory":1,"la1":30.2991,"la2":30.254,"lo1":-89.0895,"lo2":-89.0444,"dy":0.0017,"dx":0.0017,"nx":28,"ny":28,"refTime":"2023-11-01T21:00:00:Z","depth":0,"parameterNumber":2,"parameterNumberName":"U-component_of_WINDS"},"data":[0,0,0,0,0,0,0,0,0,0,0,0,0,0,0,0,0,0,0,0,0,0,0,0,0,0,0,0,0,0,0,0,0,0,0,0,0,0,0,0,0,0,0,0,0,0,0,0,0,0,0,0,0,0,0,0,0,0,-5.2848,-5.2849,0,-5.2934,-5.2935,-5.2936,-5.2862,-5.2859,-5.2856,-5.2853,-5.294,-5.2945,-5.295,0,0,0,0,0,0,0,0,0,0,0,0,0,-5.2617,-5.2622,-5.2848,-5.2849,-5.285,-5.2934,-5.2935,-5.2936,-5.2863,-5.2859,-5.2855,-5.2852,-5.2938,-5.2944,-5.2951,0,0,0,0,0,0,0,0,0,0,0,0,0,-5.2712,-5.2623,-5.2847,-5.2823,-5.2822,-5.2934,-5.2935,-5.2936,-5.2863,-5.2859,-5.2854,-5.285,-5.2936,-5.2944,-5.2952,-5.3091,0,0,-5.2975,-5.2979,0,0,0,0,0,0,0,0,-5.2707,-5.272,-5.2826,-5.2825,-5.2824,-5.2883,-5.2886,-5.2988,-5.2864,-5.2848,-5.2853,-5.2848,-5.2925,-5.2933,-5.2959,-5.3095,-5.3099,-5.2976,-5.2981,-5.2984,-5.2986,0,0,0,0,0,0,0,-5.27,-5.2716,-5.2882,-5.2827,-5.2826,-5.2807,-5.2816,-5.2905,-5.2911,-5.2849,-5.2843,-5.2855,-5.2923,-5.2952,-5.2961,-5.31,-5.2976,-5.2983,-5.2987,-5.299,-5.3356,-5.3361,0,0,0,0,0,0,-5.2696,-5.2711,-5.2879,-5.2884,-5.2753,-5.2815,-5.2825,-5.2868,-5.291,-5.2911,-5.2859,-5.2851,-5.2941,-5.2952,-5.2964,-5.313,-5.2984,-5.2991,-5.2996,-5.3351,-5.3357,-5.3363,0,0,0,0,0,0,-5.2692,-5.2712,-5.2875,-5.2796,-5.2816,-5.2824,-5.2874,-5.2872,-5.2901,-5.2917,-5.2918,-5.2887,-5.2938,-5.2953,-5.306,-5.3132,-5.2995,-5.3002,-5.3345,-5.3353,-5.336,-5.3465,0,0,0,0,0,0,-5.2685,-5.2711,-5.2764,-5.2798,-5.282,-5.2972,-5.2878,-5.2877,-5.2915,-5.2906,-5.2944,-5.2946,-5.2935,-5.3049,-5.3068,-5.3141,-5.3008,-5.3339,-5.3349,-5.3357,-5.3455,-5.3475,-5.3492,0,0,0,0,0,-5.2677,-5.279,-5.2767,-5.2788,-5.2888,-5.2976,-5.2988,-5.2974,-5.2921,-5.2975,-5.2985,-5.2945,-5.3121,-5.3061,-5.3081,-5.3157,-5.3334,-5.3346,-5.3357,-5.3447,-5.3471,-5.3492,0,0,0,0,0,0,-5.2763,-5.2794,-5.2769,-5.2896,-5.2934,-5.2963,-5.303,-5.3001,-5.3054,-5.3043,-5.3023,-5.3032,-5.3146,-5.3162,-5.3094,-5.3295,-5.3219,-5.3235,-5.328,-5.3304,-5.3322,-5.3316,-5.3014,0,0,0,0,0,-5.2797,-5.2867,-5.2889,-5.2999,-5.302,-5.3022,-5.306,-5.3046,-5.3084,-5.31,-5.3118,-5.3156,-5.322,-5.3263,-5.3322,-5.3457,-5.3464,-5.3519,-5.3538,-5.3553,-5.3568,-5.364,-5.3665,-5.34,-5.34,-5.34,0,0,-5.2868,-5.2893,-5.2938,-5.3017,-5.3045,-5.3117,-5.3036,-5.3116,-5.3169,-5.3111,-5.3215,-5.3229,-5.3271,-5.3393,-5.3447,-5.341,-5.3642,-5.3568,-5.358,-5.3586,-5.3655,-5.368,-5.3702,-5.3408,-5.3406,-5.3405,0,0,-5.3033,-5.3059,-5.3154,-5.3184,-5.3227,-5.3228,-5.3251,-5.3285,-5.3293,-5.3396,-5.3354,-5.3417,-5.3528,-5.3559,-5.359,-5.3768,-5.3733,-5.3788,-5.3886,-5.3957,-5.3978,-5.3996,-5.406,-5.4084,-5.3802,-5.3802,-5.3802,0,-5.3115,-5.3223,-5.3206,-5.329,-5.3326,-5.3278,-5.3373,-5.3403,-5.3463,-5.3489,-5.3446,-5.3585,-5.3609,-5.3738,-5.3782,-5.3808,-5.3833,-5.3784,-5.3976,-5.3995,-5.4012,-5.4072,-5.4097,-5.3809,-5.3808,-5.3807,-5.3807,0,-5.3322,-5.3397,-5.3469,-5.3529,-5.3573,-5.3662,-5.3659,-5.3706,-5.3688,-5.3693,-5.3799,-5.3827,-5.3892,-5.3921,-5.3904,-5.4048,-5.4024,-5.3979,-5.3902,-5.4044,-5.4101,-5.4124,-5.3818,-5.3816,-5.3814,-5.3812,0,0,-5.3544,-5.3595,-5.3621,-5.3649,-5.3693,-5.3751,-5.3838,-5.3902,-5.3942,-5.3986,-5.4058,-5.4153,-5.4112,-5.4147,-5.4133,-5.4196,-5.4336,-5.4143,-5.4144,-5.4179,-5.4497,-5.4531,-5.4558,-5.4313,-5.4317,-5.4321,-5.4494,0,-5.3712,-5.3864,-5.3852,-5.3995,-5.4065,-5.402,-5.4096,-5.4131,-5.4139,-5.4199,-5.4206,-5.4274,-5.4215,-5.4236,-5.4296,-5.4307,-5.44,-5.4294,-5.438,-5.4384,-5.4372,-5.4588,-5.4623,-5.4785,-5.4516,-5.452,-5.4522,0,-5.3928,-5.398,-5.4131,-5.4165,-5.4194,-5.4263,-5.4321,-5.4378,-5.4417,-5.4418,-5.4458,-5.4434,-5.4521,-5.4442,-5.4563,-5.4491,-5.4525,-5.4536,-5.4542,-5.455,-5.4462,-5.4602,-5.4836,-5.4861,-5.4557,-5.4554,-5.4552,0,-5.4076,-5.4183,-5.4288,-5.4312,-5.4355,-5.4404,-5.4424,-5.4459,-5.4498,-5.4549,-5.4574,-5.4634,-5.4667,-5.4714,-5.4706,-5.465,-5.4829,-5.475,-5.4833,-5.4833,-5.4873,-5.487,-5.5117,-5.4895,-5.4894,-5.4894,-5.4893,0,-5.4265,-5.4359,-5.4355,-5.4419,-5.4523,-5.4508,-5.4611,-5.4625,-5.4657,-5.4723,-5.4687,-5.475,-5.4736,-5.4798,-5.4793,-5.4894,-5.4909,-5.4912,-5.491,-5.4916,-5.4915,-5.4938,-5.4927,-5.49,-5.4899,-5.4898,-5.4897,0,-5.4448,-5.4448,-5.4559,-5.4591,-5.4601,-5.4677,-5.4703,-5.4764,-5.4768,-5.4853,-5.4871,-5.4879,-5.495,-5.4947,-5.5028,-5.5025,-5.5149,-5.5133,-5.5136,-5.5133,-5.5216,-5.5209,-5.5486,-5.5522,-5.5276,-5.5279,-5.5281,0,-5.4568,-5.464,-5.468,-5.4722,-5.4745,-5.4813,-5.4854,-5.4841,-5.4885,-5.4935,-5.499,-5.5058,-5.5112,-5.5228,-5.5241,-5.5303,-5.5288,-5.5381,-5.5297,-5.5301,-5.529,-5.5286,-5.5293,-5.5398,-5.5401,-5.5403,-5.5405,0,-5.4783,-5.478,-5.484,-5.4901,-5.495,-5.4997,-5.504,-5.5076,-5.5068,-5.5119,-5.5192,-5.5234,-5.5317,-5.5386,-5.5445,-5.5465,-5.5434,-5.5431,-5.5454,-5.5461,-5.546,-5.5462,-5.5181,-5.5425,-5.5423,-5.5421,-5.542,-5.5419,-5.4939,-5.5001,-5.5038,-5.5107,-5.5138,-5.5179,-5.5238,-5.525,-5.5311,-5.5378,-5.5367,-5.5449,-5.5486,-5.5563,-5.5588,-5.5652,-5.5619,-5.5651,-5.566,-5.5668,-5.5678,-5.5449,-5.5663,-5.5662,-5.5662,-5.5661,-5.5661,0,-5.5152,-5.5174,-5.5237,-5.5299,-5.5353,-5.5319,-5.5365,-5.5412,-5.5485,-5.5522,-5.5577,-5.5661,-5.5727,-5.5745,-5.5809,-5.5857,-5.5844,-5.5874,-5.587,-5.5875,-5.5703,-5.5678,-5.5883,-5.5883,-5.5883,-5.5883,-5.5883,-5.5883,-5.5269,-5.5372,-5.5374,-5.5492,-5.5513,-5.5594,-5.5623,-5.5661,-5.5691,-5.5787,-5.5842,-5.5853,-5.5883,-5.5949,-5.6008,-5.6012,-5.6037,-5.6073,-5.6071,-5.591,-5.5887,-5.5866,-5.5842,-5.6078,-5.6079,-5.6237,-5.6239,-5.624]},{"header":{"parameterUnit":"m.s-1","parameterCategory":1,"la1":30.2991,"la2":30.254,"lo1":-89.0895,"lo2":-89.0444,"dy":0.0017,"dx":0.0017,"nx":28,"ny":28,"refTime":"2023-11-01T21:00:00:Z","depth":0,"parameterNumber":3,"parameterNumberName":"V-component_of_WINDS"},"data":[0,0,0,0,0,0,0,0,0,0,0,0,0,0,0,0,0,0,0,0,0,0,0,0,0,0,0,0,0,0,0,0,0,0,0,0,0,0,0,0,0,0,0,0,0,0,0,0,0,0,0,0,0,0,0,0,0,0,-2.4071,-2.4071,0,-2.3992,-2.3991,-2.399,-2.3916,-2.3916,-2.3915,-2.3914,-2.3833,-2.3831,-2.383,0,0,0,0,0,0,0,0,0,0,0,0,0,-2.4158,-2.4157,-2.4072,-2.4071,-2.407,-2.3992,-2.3991,-2.399,-2.3917,-2.3915,-2.3914,-2.3913,-2.3833,-2.3832,-2.383,0,0,0,0,0,0,0,0,0,0,0,0,0,-2.4104,-2.4156,-2.4072,-2.4024,-2.4018,-2.3992,-2.3991,-2.399,-2.3917,-2.3915,-2.3914,-2.3913,-2.3834,-2.3832,-2.383,-2.3845,0,0,-2.3824,-2.3823,0,0,0,0,0,0,0,0,-2.4107,-2.41,-2.4032,-2.4027,-2.4021,-2.3963,-2.3992,-2.3941,-2.3917,-2.3955,-2.3914,-2.3912,-2.3877,-2.3872,-2.386,-2.3841,-2.3838,-2.3824,-2.3822,-2.3822,-2.3821,0,0,0,0,0,0,0,-2.4111,-2.4103,-2.404,-2.4031,-2.4024,-2.4005,-2.3996,-2.3982,-2.3925,-2.3952,-2.3946,-2.3938,-2.3874,-2.3862,-2.3857,-2.3837,-2.3824,-2.3822,-2.3821,-2.382,-2.3823,-2.3824,0,0,0,0,0,0,-2.4122,-2.4107,-2.4043,-2.4038,-2.4061,-2.4005,-2.3995,-2.3983,-2.3925,-2.3915,-2.3939,-2.3935,-2.3866,-2.386,-2.3854,-2.3865,-2.3822,-2.382,-2.3819,-2.3821,-2.3823,-2.3824,0,0,0,0,0,0,-2.4124,-2.4117,-2.4046,-2.4071,-2.406,-2.4005,-2.3992,-2.3982,-2.397,-2.3915,-2.3905,-2.3937,-2.3864,-2.3857,-2.3847,-2.3861,-2.3819,-2.3817,-2.382,-2.3822,-2.3823,-2.389,0,0,0,0,0,0,-2.4127,-2.4118,-2.4124,-2.4071,-2.4059,-2.4041,-2.3993,-2.3981,-2.3966,-2.396,-2.3911,-2.3901,-2.3863,-2.385,-2.3845,-2.3858,-2.3816,-2.3818,-2.3821,-2.3823,-2.3886,-2.3894,-2.39,0,0,0,0,0,-2.413,-2.4147,-2.4125,-2.4117,-2.4065,-2.4042,-2.4035,-2.399,-2.3968,-2.3973,-2.3937,-2.3903,-2.3861,-2.385,-2.3843,-2.3856,-2.3817,-2.382,-2.3823,-2.3883,-2.3892,-2.39,0,0,0,0,0,0,-2.4203,-2.4139,-2.4114,-2.4114,-2.4084,-2.4029,-2.4034,-2.4002,-2.3978,-2.3973,-2.3919,-2.3908,-2.3904,-2.3879,-2.3868,-2.3866,-2.3834,-2.3836,-2.3882,-2.389,-2.3897,-2.3903,-2.3814,0,0,0,0,0,-2.4219,-2.4206,-2.415,-2.4155,-2.4141,-2.4091,-2.4079,-2.4047,-2.4013,-2.4,-2.3964,-2.3933,-2.3912,-2.39,-2.3879,-2.3882,-2.3869,-2.3887,-2.3894,-2.3901,-2.3902,-2.3899,-2.3906,-2.3833,-2.3833,-2.3833,0,0,-2.4252,-2.4215,-2.421,-2.4169,-2.4142,-2.4128,-2.4081,-2.4069,-2.4057,-2.3999,-2.3986,-2.3959,-2.392,-2.3916,-2.3912,-2.3895,-2.3919,-2.3904,-2.3909,-2.3908,-2.3903,-2.3909,-2.3916,-2.3835,-2.3835,-2.3835,0,0,-2.4305,-2.4277,-2.4276,-2.425,-2.4209,-2.4174,-2.4174,-2.4124,-2.4103,-2.409,-2.4044,-2.403,-2.3997,-2.397,-2.3952,-2.3992,-2.3958,-2.3986,-2.4023,-2.402,-2.4026,-2.4031,-2.4042,-2.4048,-2.3988,-2.3988,-2.3988,0,-2.4351,-2.4329,-2.4281,-2.427,-2.4253,-2.4198,-2.4196,-2.4173,-2.4127,-2.4115,-2.4097,-2.4051,-2.4022,-2.4009,-2.4018,-2.4006,-2.4003,-2.3991,-2.4029,-2.4033,-2.4037,-2.4048,-2.4052,-2.3992,-2.3991,-2.3991,-2.3991,0,-2.4386,-2.4371,-2.4376,-2.4332,-2.4315,-2.4309,-2.4259,-2.4247,-2.4216,-2.4183,-2.4169,-2.4131,-2.4099,-2.4094,-2.4064,-2.4076,-2.4066,-2.4039,-2.4006,-2.4048,-2.4057,-2.4061,-2.3997,-2.3996,-2.3995,-2.3994,0,0,-2.4483,-2.4411,-2.4414,-2.4391,-2.4341,-2.4328,-2.4319,-2.4287,-2.4277,-2.4247,-2.4236,-2.4208,-2.4181,-2.4161,-2.4128,-2.4126,-2.4156,-2.4098,-2.4096,-2.4108,-2.4163,-2.4183,-2.4189,-2.4133,-2.4134,-2.4135,-2.4166,0,-2.4526,-2.4507,-2.4462,-2.4456,-2.444,-2.4386,-2.4378,-2.4346,-2.4314,-2.4295,-2.426,-2.424,-2.4208,-2.4195,-2.4191,-2.4153,-2.4166,-2.4151,-2.4122,-2.4121,-2.4132,-2.4194,-2.4215,-2.4246,-2.4169,-2.417,-2.417,0,-2.4574,-2.4546,-2.4538,-2.4485,-2.4477,-2.4471,-2.4436,-2.442,-2.4381,-2.4358,-2.4334,-2.4296,-2.4281,-2.4252,-2.423,-2.422,-2.4206,-2.4185,-2.4185,-2.418,-2.4148,-2.4188,-2.4256,-2.426,-2.4176,-2.4175,-2.4175,0,-2.4643,-2.4603,-2.4592,-2.4575,-2.4515,-2.4511,-2.4485,-2.4445,-2.4428,-2.4398,-2.4385,-2.4355,-2.4337,-2.4313,-2.4267,-2.4251,-2.425,-2.4217,-2.4229,-2.423,-2.423,-2.4231,-2.4295,-2.4224,-2.4224,-2.4224,-2.4224,0,-2.4694,-2.4691,-2.4622,-2.4615,-2.4609,-2.4557,-2.4552,-2.4522,-2.4486,-2.4471,-2.4423,-2.441,-2.4351,-2.4331,-2.4295,-2.4281,-2.4274,-2.4254,-2.4244,-2.4257,-2.4259,-2.4246,-2.4242,-2.4225,-2.4225,-2.4225,-2.4224,0,-2.477,-2.4724,-2.4708,-2.4651,-2.4637,-2.4635,-2.4585,-2.4576,-2.4541,-2.4523,-2.4516,-2.446,-2.4434,-2.4386,-2.4346,-2.4321,-2.4314,-2.4298,-2.4327,-2.4321,-2.4334,-2.4333,-2.4391,-2.4394,-2.4324,-2.4324,-2.4325,0,-2.4805,-2.4801,-2.4743,-2.473,-2.4706,-2.4685,-2.4667,-2.4615,-2.4597,-2.4551,-2.4547,-2.4516,-2.4489,-2.4448,-2.4404,-2.4373,-2.4355,-2.4377,-2.435,-2.4362,-2.4352,-2.4352,-2.435,-2.4383,-2.4384,-2.4385,-2.4386,0,-2.4871,-2.4848,-2.4824,-2.479,-2.477,-2.4741,-2.471,-2.4702,-2.4642,-2.4625,-2.4596,-2.4575,-2.4533,-2.4503,-2.4464,-2.4436,-2.44,-2.4394,-2.4395,-2.4408,-2.4424,-2.4413,-2.4342,-2.4393,-2.4393,-2.4392,-2.4392,-2.4391,-2.4926,-2.4919,-2.4877,-2.485,-2.4821,-2.4792,-2.478,-2.4742,-2.4718,-2.468,-2.465,-2.4624,-2.4582,-2.4526,-2.45,-2.4478,-2.4461,-2.4463,-2.4463,-2.4464,-2.4468,-2.4428,-2.4471,-2.4471,-2.447,-2.447,-2.447,0,-2.4988,-2.4958,-2.4934,-2.4891,-2.487,-2.4838,-2.4801,-2.4785,-2.4762,-2.4726,-2.4699,-2.4666,-2.4635,-2.4588,-2.4553,-2.4544,-2.4526,-2.4536,-2.4535,-2.4529,-2.4486,-2.4488,-2.4551,-2.4551,-2.4551,-2.4551,-2.4551,-2.4551,-2.5018,-2.5003,-2.4974,-2.4944,-2.4913,-2.4886,-2.4868,-2.484,-2.4811,-2.4775,-2.4749,-2.4718,-2.4677,-2.4638,-2.4608,-2.4595,-2.4583,-2.4598,-2.4579,-2.454,-2.4532,-2.4525,-2.4527,-2.4597,-2.4597,-2.4624,-2.4624,-2.4624]}]]